CW3847 La Orotava ES current weather conditions

sailwx.info

Wind from 342 at 2 knots gusting 3

Air temperature 21.7° C
Dewpoint 17.7° C

Last reported at 2014-Jul-25 10:48 UTC.
Time now 2014-Jul-25 11:24 UTC

Location: N 28°23' W 016°31'.
View on Google Maps.

See reports from other nearby stations

  
Tides and Currents Weather Stations Pressure Air Temp Water Temp Dewpoint Dewpoint Depression Visibility Wind Speed Wind Dir Waves Ship Positions
date/time (UTC)wind fromknots sea level pressurealtimeterstation pressurevisibilityair tempwater tempwave heightnotes
2014-Jul-25 10:48 342 2 gusting 3 21.7
2014-Jul-25 10:38 029 1 gusting 5 21.7
2014-Jul-25 09:48 015 0 gusting 2 21.1
2014-Jul-25 09:38 350 2 gusting 2 21.1
2014-Jul-25 09:28 344 4 gusting 4 21.1
2014-Jul-25 09:18 348 1 gusting 2 21.1
2014-Jul-25 09:08 325 2 gusting 2 21.1
2014-Jul-25 08:38 331 1 gusting 2 20.6
2014-Jul-25 08:18 104 0 gusting 1 20.6
2014-Jul-25 08:08 067 1 gusting 2 20.0
2014-Jul-25 07:58 312 0 gusting 2 19.4
2014-Jul-25 07:38 201 2 gusting 2 18.9
2014-Jul-25 07:28 169 1 gusting 3 18.9
2014-Jul-25 07:18 175 1 gusting 3 18.3
2014-Jul-25 06:48 185 2 gusting 6 17.8
2014-Jul-25 06:38 172 4 gusting 4 17.8
2014-Jul-25 06:28 192 3 gusting 5 17.8
2014-Jul-25 06:18 178 2 gusting 3 17.8
2014-Jul-25 06:08 161 3 gusting 3 17.8
2014-Jul-25 05:58 185 2 gusting 5 17.8
2014-Jul-25 05:48 206 1 gusting 4 17.8
2014-Jul-25 05:38 180 2 gusting 3 18.3
2014-Jul-25 05:18 149 2 gusting 4 18.3
2014-Jul-25 04:58 155 2 gusting 5 18.3
2014-Jul-25 04:48 173 4 gusting 5 18.9
2014-Jul-25 04:38 178 1 gusting 2 18.9
2014-Jul-25 04:08 186 1 gusting 2 18.9
2014-Jul-25 03:58 175 1 gusting 2 18.9
2014-Jul-25 03:48 160 1 gusting 2 18.9
2014-Jul-25 03:18 169 5 gusting 5 18.3
2014-Jul-25 02:48 169 2 gusting 5 17.8
2014-Jul-25 01:48 165 1 gusting 3 18.3
2014-Jul-25 01:38 157 2 gusting 2 18.3
2014-Jul-25 01:28 177 2 gusting 2 18.3
2014-Jul-25 01:18 178 1 gusting 4 18.3
2014-Jul-25 01:08 196 2 gusting 3 18.3
2014-Jul-25 00:58 180 1 gusting 3 18.3
2014-Jul-25 00:38 188 1 gusting 2 18.3
2014-Jul-25 00:18 196 18.3
2014-Jul-25 00:08 174 1 gusting 2 18.3
2014-Jul-24 23:48 188 0 gusting 1 18.9
2014-Jul-24 23:28 211 2 gusting 3 18.3
2014-Jul-24 23:18 173 6 gusting 6 18.3
2014-Jul-24 22:58 173 3 gusting 6 18.3
2014-Jul-24 22:28 175 0 gusting 1 18.9
2014-Jul-24 22:07 181 1 gusting 1 18.9
2014-Jul-24 21:47 168 1 gusting 2 19.4
2014-Jul-24 21:37 168 2 gusting 3 19.4
2014-Jul-24 21:17 180 0 gusting 1 19.4
2014-Jul-24 21:07 175 1 gusting 2 19.4
2014-Jul-24 20:47 194 1 gusting 2 20.0
2014-Jul-24 20:17 348 1 gusting 2 20.6
2014-Jul-24 19:57 333 1 gusting 2 21.1
2014-Jul-24 19:37 022 2 gusting 4 21.1
2014-Jul-24 18:57 018 2 gusting 6 21.7
2014-Jul-24 18:47 348 3 gusting 6 21.7
2014-Jul-24 18:37 005 3 gusting 4 21.1
2014-Jul-24 18:27 321 2 gusting 6 21.1
2014-Jul-24 18:17 336 2 gusting 7 21.1
2014-Jul-24 18:07 015 3 gusting 5 21.1
2014-Jul-24 17:27 040 2 gusting 6 22.2
2014-Jul-24 17:17 017 5 gusting 6 21.7
2014-Jul-24 17:07 061 6 gusting 7 21.7
2014-Jul-24 16:47 347 4 gusting 7 22.2
2014-Jul-24 16:37 010 5 gusting 8 22.2
2014-Jul-24 16:27 339 6 gusting 8 22.2
2014-Jul-24 16:17 335 6 gusting 6 22.2
2014-Jul-24 16:07 317 6 gusting 8 22.8
2014-Jul-24 15:57 005 2 gusting 8 22.8
2014-Jul-24 15:47 339 2 gusting 4 22.2
2014-Jul-24 15:37 027 7 gusting 7 22.2
2014-Jul-24 15:27 355 6 gusting 10 22.8
2014-Jul-24 15:07 323 3 gusting 8 22.8
2014-Jul-24 14:47 005 3 gusting 8 23.3
2014-Jul-24 14:37 294 3 gusting 8 22.8
2014-Jul-24 14:27 360 7 gusting 7 22.2
2014-Jul-24 14:17 070 4 gusting 8 22.2
2014-Jul-24 14:07 015 3 gusting 7 22.2
2014-Jul-24 13:47 321 4 gusting 6 21.7
2014-Jul-24 13:37 005 2 gusting 3 21.1
2014-Jul-24 13:27 014 5 gusting 6 21.1
2014-Jul-24 13:17 030 3 gusting 6 21.1
2014-Jul-24 13:07 025 3 gusting 6 21.1
2014-Jul-24 12:47 341 6 gusting 6 20.6
2014-Jul-24 12:37 016 6 gusting 7 20.0
2014-Jul-24 12:17 009 3 gusting 6 20.0
2014-Jul-24 11:57 360 2 gusting 7 20.0
2014-Jul-24 11:47 360 3 gusting 7 20.6
2014-Jul-24 11:27 020 5 gusting 7 20.6
2014-Jul-24 11:07 047 2 gusting 6 20.6
2014-Jul-24 10:57 005 2 gusting 6 20.0
2014-Jul-24 10:47 355 3 gusting 5 20.0
2014-Jul-24 10:27 050 1 gusting 2 20.0
2014-Jul-24 10:17 028 2 gusting 2 20.0
2014-Jul-24 09:37 009 5 gusting 6 20.0
2014-Jul-24 09:27 022 1 gusting 3 20.0
2014-Jul-24 08:57 350 1 gusting 3 20.6
2014-Jul-24 08:47 344 20.0
2014-Jul-24 08:37 009 1 gusting 2 19.4
2014-Jul-24 08:27 015 19.4
2014-Jul-24 08:07 330 3 gusting 6 19.4
2014-Jul-24 07:57 340 0 gusting 1 19.4
2014-Jul-24 07:37 305 1 gusting 2 19.4
2014-Jul-24 07:27 163 0 gusting 2 18.9
2014-Jul-24 06:17 188 0 gusting 1 18.3
2014-Jul-24 06:07 193 2 gusting 2 18.3
2014-Jul-24 05:57 202 18.3
2014-Jul-24 05:47 212 2 gusting 2 17.8
2014-Jul-24 04:47 175 0 gusting 3 18.3
2014-Jul-24 04:37 156 0 gusting 2 18.9
2014-Jul-24 04:27 336 0 gusting 0 18.9
2014-Jul-24 04:17 327 2 gusting 2 19.4
2014-Jul-24 04:07 097 0 gusting 0 18.9
2014-Jul-24 03:27 161 0 gusting 3 18.9
2014-Jul-24 03:17 137 5 gusting 5 18.9
2014-Jul-24 03:07 165 1 gusting 2 18.9
2014-Jul-24 02:57 207 1 gusting 2 18.9
2014-Jul-24 02:47 135 1 gusting 2 18.9
2014-Jul-24 02:37 051 2 gusting 2 18.9
2014-Jul-24 02:17 056 0 gusting 1 19.4
2014-Jul-24 01:57 265 2 gusting 4 18.9
2014-Jul-24 01:47 199 18.9
2014-Jul-24 00:47 325 0 gusting 0 18.9
2014-Jul-24 00:37 323 0 gusting 2 18.9
2014-Jul-24 00:27 299 1 gusting 2 18.9
2014-Jul-24 00:17 319 19.4
2014-Jul-23 23:57 360 1 gusting 2 20.0
2014-Jul-23 23:47 169 1 gusting 3 20.0
2014-Jul-23 23:37 176 3 gusting 7 20.0
2014-Jul-23 22:57 332 1 gusting 1 20.0
2014-Jul-23 22:37 225 0 gusting 1 20.0
2014-Jul-23 22:27 271 2 gusting 2 20.0
2014-Jul-23 22:07 301 20.0
2014-Jul-23 21:57 288 0 gusting 1 20.0
2014-Jul-23 21:27 288 0 gusting 2 20.0
2014-Jul-23 21:17 323 2 gusting 2 20.0
2014-Jul-23 20:57 325 0 gusting 2 20.0
2014-Jul-23 20:37 355 1 gusting 2 20.6
2014-Jul-23 20:27 023 2 gusting 2 20.6
2014-Jul-23 20:17 324 21.1
2014-Jul-23 20:07 355 2 gusting 2 21.1
2014-Jul-23 19:57 348 1 gusting 2 21.1
2014-Jul-23 19:47 340 2 gusting 2 21.1
2014-Jul-23 19:17 329 4 gusting 4 21.1
2014-Jul-23 19:07 330 2 gusting 5 21.1
2014-Jul-23 18:47 325 3 gusting 3 21.1
2014-Jul-23 18:37 338 3 gusting 6 21.1
2014-Jul-23 18:27 333 2 gusting 5 21.7
2014-Jul-23 18:17 012 0 gusting 2 22.2
2014-Jul-23 18:07 337 2 gusting 4 22.8
2014-Jul-23 17:37 298 2 gusting 4 22.2
2014-Jul-23 17:27 336 2 gusting 6 22.2
2014-Jul-23 17:17 329 6 gusting 8 22.2
2014-Jul-23 16:37 041 2 gusting 5 23.3
2014-Jul-23 16:27 009 3 gusting 8 23.9
2014-Jul-23 16:17 037 2 gusting 10 23.9
2014-Jul-23 15:47 360 7 gusting 8 23.3
2014-Jul-23 15:37 011 6 gusting 8 23.9
2014-Jul-23 15:07 360 4 gusting 8 23.9
2014-Jul-23 14:57 342 3 gusting 6 23.9
2014-Jul-23 14:37 022 4 gusting 6 23.3
2014-Jul-23 14:27 011 5 gusting 6 22.8
2014-Jul-23 14:17 011 6 gusting 8 22.8
2014-Jul-23 14:07 325 2 gusting 6 22.8
2014-Jul-23 13:57 341 2 gusting 4 22.8
2014-Jul-23 13:17 360 2 gusting 6 21.7
2014-Jul-23 13:07 030 2 gusting 6 21.7
2014-Jul-23 12:57 334 3 gusting 6 21.7
2014-Jul-23 12:47 034 1 gusting 6 21.7
2014-Jul-23 12:37 336 4 gusting 6 21.7
2014-Jul-23 12:17 005 2 gusting 4 21.7
2014-Jul-23 12:07 329 7 gusting 7 22.2
2014-Jul-23 11:57 337 2 gusting 2 21.7
2014-Jul-23 11:17 020 1 gusting 7 20.6
2014-Jul-23 11:07 346 2 gusting 2 20.6